Time,TemperatureF,DewpointF,PressureIn,WindDirection,WindDirectionDegrees,WindSpeedMPH,WindSpeedGustMPH,Humidity,HourlyPrecipIn,Conditions,Clouds,dailyrainin,SoftwareType,DateUTC
2015-05-03 00:11:00,60.9,56.0,30.11,West,270,0.0,0.0,83,0.00,,,0.00,weatherlink.com 1.10,2015-05-03 05:11:00,
2015-05-03 00:26:00,60.5,56.0,30.11,West,270,0.0,0.0,84,0.00,,,0.00,weatherlink.com 1.10,2015-05-03 05:26:00,
2015-05-03 00:41:00,60.2,55.0,30.11,West,270,0.0,0.0,84,0.00,,,0.00,weatherlink.com 1.10,2015-05-03 05:41:00,
2015-05-03 00:56:00,59.7,55.0,30.11,West,270,0.0,0.0,84,0.00,,,0.00,weatherlink.com 1.10,2015-05-03 05:56:00,
2015-05-03 01:11:00,59.5,55.0,30.10,West,270,0.0,0.0,85,0.00,,,0.00,weatherlink.com 1.10,2015-05-03 06:11:00,
2015-05-03 01:26:00,59.0,55.0,30.10,West,270,0.0,0.0,85,0.00,,,0.00,weatherlink.com 1.10,2015-05-03 06:26:00,
2015-05-03 01:41:00,58.7,55.0,30.10,West,270,0.0,0.0,86,0.00,,,0.00,weatherlink.com 1.10,2015-05-03 06:41:00,
2015-05-03 01:56:00,58.5,55.0,30.09,West,270,0.0,0.0,87,0.00,,,0.00,weatherlink.com 1.10,2015-05-03 06:56:00,
2015-05-03 02:11:00,58.2,54.0,30.09,West,270,0.0,0.0,86,0.00,,,0.00,weatherlink.com 1.10,2015-05-03 07:11:00,
2015-05-03 02:26:00,57.8,54.0,30.09,West,270,0.0,0.0,87,0.00,,,0.00,weatherlink.com 1.10,2015-05-03 07:26:00,
2015-05-03 02:41:00,57.5,54.0,30.08,West,270,0.0,0.0,87,0.00,,,0.00,weatherlink.com 1.10,2015-05-03 07:41:00,
2015-05-03 02:56:00,57.2,53.0,30.08,West,270,0.0,0.0,87,0.00,,,0.00,weatherlink.com 1.10,2015-05-03 07:56:00,
2015-05-03 03:11:00,57.1,53.0,30.08,West,270,0.0,0.0,87,0.00,,,0.00,weatherlink.com 1.10,2015-05-03 08:11:00,
2015-05-03 03:26:00,57.0,53.0,30.08,West,270,0.0,0.0,87,0.00,,,0.00,weatherlink.com 1.10,2015-05-03 08:26:00,
2015-05-03 03:41:00,56.9,53.0,30.08,West,270,0.0,0.0,87,0.00,,,0.00,weatherlink.com 1.10,2015-05-03 08:41:00,
2015-05-03 03:56:00,56.7,53.0,30.08,WNW,294,0.0,1.0,88,0.00,,,0.00,weatherlink.com 1.10,2015-05-03 08:56:00,
2015-05-03 04:11:00,56.6,53.0,30.09,WNW,295,0.0,0.0,88,0.00,,,0.00,weatherlink.com 1.10,2015-05-03 09:11:00,
2015-05-03 04:26:00,56.5,53.0,30.09,WNW,302,0.0,0.0,88,0.00,,,0.00,weatherlink.com 1.10,2015-05-03 09:26:00,
2015-05-03 04:41:00,56.4,53.0,30.09,WNW,302,0.0,0.0,88,0.00,,,0.00,weatherlink.com 1.10,2015-05-03 09:41:00,
2015-05-03 04:56:00,56.3,53.0,30.09,NW,305,0.0,1.0,89,0.00,,,0.00,weatherlink.com 1.10,2015-05-03 09:56:00,
2015-05-03 05:11:00,56.1,53.0,30.10,NW,305,0.0,0.0,89,0.00,,,0.00,weatherlink.com 1.10,2015-05-03 10:11:00,
2015-05-03 05:26:00,56.0,53.0,30.10,WNW,297,2.0,4.0,89,0.00,,,0.00,weatherlink.com 1.10,2015-05-03 10:26:00,
2015-05-03 05:41:00,56.0,53.0,30.10,NNE,13,1.0,3.0,89,0.00,,,0.00,weatherlink.com 1.10,2015-05-03 10:41:00,
2015-05-03 05:56:00,55.9,53.0,30.10,NNE,12,2.0,4.0,89,0.00,,,0.00,weatherlink.com 1.10,2015-05-03 10:56:00,
2015-05-03 06:11:00,56.0,53.0,30.11,North,11,2.0,3.0,90,0.00,,,0.00,weatherlink.com 1.10,2015-05-03 11:11:00,
2015-05-03 06:26:00,56.7,54.0,30.11,North,11,0.0,0.0,89,0.00,,,0.00,weatherlink.com 1.10,2015-05-03 11:26:00,
2015-05-03 06:41:00,58.3,55.0,30.12,North,10,3.0,4.0,87,0.00,,,0.00,weatherlink.com 1.10,2015-05-03 11:41:00,
2015-05-03 06:56:00,61.0,56.0,30.12,North,9,2.0,6.0,82,0.00,,,0.00,weatherlink.com 1.10,2015-05-03 11:56:00,
2015-05-03 07:12:00,63.1,56.0,30.13,North,355,3.0,8.0,77,0.00,,,0.00,weatherlink.com 1.10,2015-05-03 12:12:00,
2015-05-03 07:27:00,65.3,57.0,30.14,North,10,1.0,6.0,74,0.00,,,0.00,weatherlink.com 1.10,2015-05-03 12:27:00,
2015-05-03 07:42:00,66.8,57.0,30.14,NNE,15,3.0,5.0,72,0.00,,,0.00,weatherlink.com 1.10,2015-05-03 12:42:00,
2015-05-03 07:57:00,69.0,59.0,30.15,NE,44,3.0,6.0,70,0.00,,,0.00,weatherlink.com 1.10,2015-05-03 12:57:00,
2015-05-03 08:12:00,69.1,59.0,30.15,NE,42,5.0,8.0,69,0.00,,,0.00,weatherlink.com 1.10,2015-05-03 13:12:00,
2015-05-03 08:27:00,70.0,59.0,30.15,NNE,32,5.0,7.0,68,0.00,,,0.00,weatherlink.com 1.10,2015-05-03 13:27:00,
2015-05-03 08:42:00,70.9,59.0,30.16,NE,36,5.0,9.0,67,0.00,,,0.00,weatherlink.com 1.10,2015-05-03 13:42:00,
2015-05-03 08:57:00,72.2,59.0,30.16,NE,35,5.0,7.0,63,0.00,,,0.00,weatherlink.com 1.10,2015-05-03 13:57:00,
2015-05-03 09:12:00,72.9,59.0,30.16,East,79,4.0,6.0,61,0.00,,,0.00,weatherlink.com 1.10,2015-05-03 14:12:00,
2015-05-03 09:27:00,72.5,58.0,30.17,NE,55,1.0,4.0,61,0.00,,,0.00,weatherlink.com 1.10,2015-05-03 14:27:00,
2015-05-03 09:42:00,73.9,59.0,30.17,NE,55,1.0,2.0,59,0.00,,,0.00,weatherlink.com 1.10,2015-05-03 14:42:00,
2015-05-03 09:57:00,71.6,61.0,30.17,SE,144,8.0,11.0,70,0.00,,,0.00,weatherlink.com 1.10,2015-05-03 14:57:00,
2015-05-03 10:12:00,72.7,56.0,30.17,ESE,112,12.0,16.0,57,0.00,,,0.00,weatherlink.com 1.10,2015-05-03 15:12:00,
2015-05-03 10:27:00,72.8,57.0,30.18,SE,140,12.0,15.0,58,0.00,,,0.00,weatherlink.com 1.10,2015-05-03 15:27:00,
2015-05-03 10:42:00,72.8,56.0,30.18,ESE,115,8.0,14.0,56,0.00,,,0.00,weatherlink.com 1.10,2015-05-03 15:42:00,
2015-05-03 10:57:00,72.7,59.0,30.18,SE,133,10.0,12.0,62,0.00,,,0.00,weatherlink.com 1.10,2015-05-03 15:57:00,
2015-05-03 11:12:00,72.6,59.0,30.18,SE,146,12.0,15.0,63,0.00,,,0.00,weatherlink.com 1.10,2015-05-03 16:12:00,
2015-05-03 11:27:00,72.9,59.0,30.18,SE,130,11.0,15.0,61,0.00,,,0.00,weatherlink.com 1.10,2015-05-03 16:27:00,
2015-05-03 11:42:00,73.1,60.0,30.18,SE,132,10.0,13.0,63,0.00,,,0.00,weatherlink.com 1.10,2015-05-03 16:42:00,
2015-05-03 11:57:00,73.0,62.0,30.18,SE,130,10.0,14.0,68,0.00,,,0.00,weatherlink.com 1.10,2015-05-03 16:57:00,
2015-05-03 12:12:00,72.9,61.0,30.18,SE,132,11.0,13.0,67,0.00,,,0.00,weatherlink.com 1.10,2015-05-03 17:12:00,
2015-05-03 12:27:00,72.9,63.0,30.17,SE,139,13.0,14.0,72,0.00,,,0.00,weatherlink.com 1.10,2015-05-03 17:27:00,
2015-05-03 12:42:00,73.0,63.0,30.17,SE,144,12.0,15.0,72,0.00,,,0.00,weatherlink.com 1.10,2015-05-03 17:42:00,
2015-05-03 12:57:00,73.1,63.0,30.17,SE,133,8.0,13.0,70,0.00,,,0.00,weatherlink.com 1.10,2015-05-03 17:57:00,
2015-05-03 13:12:00,73.1,64.0,30.16,SE,134,11.0,13.0,72,0.00,,,0.00,weatherlink.com 1.10,2015-05-03 18:12:00,
2015-05-03 13:27:00,73.2,64.0,30.16,SE,144,9.0,12.0,72,0.00,,,0.00,weatherlink.com 1.10,2015-05-03 18:27:00,
2015-05-03 13:42:00,73.3,64.0,30.16,SSE,148,10.0,12.0,72,0.00,,,0.00,weatherlink.com 1.10,2015-05-03 18:42:00,
2015-05-03 13:57:00,73.4,63.0,30.15,SSE,150,12.0,14.0,71,0.00,,,0.00,weatherlink.com 1.10,2015-05-03 18:57:00,
2015-05-03 14:12:00,73.6,63.0,30.15,SSE,154,10.0,14.0,69,0.00,,,0.00,weatherlink.com 1.10,2015-05-03 19:12:00,
2015-05-03 14:28:00,73.7,63.0,30.15,SSE,155,11.0,15.0,70,0.00,,,0.00,weatherlink.com 1.10,2015-05-03 19:28:00,
2015-05-03 14:43:00,73.7,64.0,30.14,SSE,158,8.0,14.0,71,0.00,,,0.00,weatherlink.com 1.10,2015-05-03 19:43:00,
2015-05-03 14:58:00,73.8,64.0,30.14,SSE,157,9.0,14.0,72,0.00,,,0.00,weatherlink.com 1.10,2015-05-03 19:58:00,
2015-05-03 15:13:00,73.9,64.0,30.13,SSE,157,10.0,12.0,72,0.00,,,0.00,weatherlink.com 1.10,2015-05-03 20:13:00,
2015-05-03 15:28:00,74.0,64.0,30.13,SSE,158,10.0,12.0,72,0.00,,,0.00,weatherlink.com 1.10,2015-05-03 20:28:00,
2015-05-03 15:43:00,74.2,66.0,30.13,SSE,167,9.0,14.0,75,0.00,,,0.00,weatherlink.com 1.10,2015-05-03 20:43:00,
2015-05-03 15:58:00,74.3,64.0,30.12,South,178,8.0,11.0,71,0.00,,,0.00,weatherlink.com 1.10,2015-05-03 20:58:00,
2015-05-03 16:13:00,74.7,65.0,30.12,South,180,9.0,11.0,72,0.00,,,0.00,weatherlink.com 1.10,2015-05-03 21:13:00,
2015-05-03 16:28:00,74.8,64.0,30.12,South,173,10.0,12.0,70,0.00,,,0.00,weatherlink.com 1.10,2015-05-03 21:28:00,
2015-05-03 16:43:00,74.7,64.0,30.12,South,175,11.0,12.0,70,0.00,,,0.00,weatherlink.com 1.10,2015-05-03 21:43:00,
2015-05-03 16:58:00,74.8,65.0,30.12,South,184,9.0,12.0,71,0.00,,,0.00,weatherlink.com 1.10,2015-05-03 21:58:00,
2015-05-03 17:13:00,74.8,64.0,30.12,South,182,11.0,12.0,70,0.00,,,0.00,weatherlink.com 1.10,2015-05-03 22:13:00,
2015-05-03 17:28:00,74.6,66.0,30.12,South,178,9.0,11.0,74,0.00,,,0.00,weatherlink.com 1.10,2015-05-03 22:28:00,
2015-05-03 17:43:00,74.4,66.0,30.12,South,184,12.0,13.0,74,0.00,,,0.00,weatherlink.com 1.10,2015-05-03 22:43:00,
2015-05-03 18:13:00,74.3,66.0,30.12,South,183,11.0,11.0,75,0.00,,,0.00,weatherlink.com 1.10,2015-05-03 23:13:00,
2015-05-03 18:28:00,74.1,66.0,30.12,SSE,162,11.0,11.0,75,0.00,,,0.00,weatherlink.com 1.10,2015-05-03 23:28:00,
2015-05-03 18:43:00,73.7,66.0,30.12,South,172,7.0,11.0,76,0.00,,,0.00,weatherlink.com 1.10,2015-05-03 23:43:00,
2015-05-03 19:13:00,73.4,66.0,30.13,SSE,165,9.0,11.0,77,0.00,,,0.00,weatherlink.com 1.10,2015-05-04 00:13:00,
2015-05-03 19:28:00,73.3,66.0,30.13,SSE,165,7.0,10.0,79,0.00,,,0.00,weatherlink.com 1.10,2015-05-04 00:28:00,
2015-05-03 19:58:00,73.0,67.0,30.14,SSE,154,9.0,11.0,81,0.00,,,0.00,weatherlink.com 1.10,2015-05-04 00:58:00,
2015-05-03 20:13:00,72.9,67.0,30.14,South,172,9.0,12.0,81,0.00,,,0.00,weatherlink.com 1.10,2015-05-04 01:13:00,
2015-05-03 20:28:00,72.8,66.0,30.14,SSE,157,8.0,11.0,80,0.00,,,0.00,weatherlink.com 1.10,2015-05-04 01:28:00,